Weather History for KDNN - January, 2013

Change the Weather History Date:

Thursday, January 17, 2013

  Actual Average (KCHA) Record (KCHA)
Temperature  
Mean Temperature 38 °F 40 °F  
Max Temperature 44 °F 50 °F 73 °F (1907)
Min Temperature 33 °F 30 °F -2 °F (1977)
Degree Days  
Heating Degree Days 26 25  
Month to date heating degree days 425  
Since 1 July heating degree days 1709  
Cooling Degree Days 0 0  
Month to date cooling degree days 0  
Year to date cooling degree days 0  
Moisture  
Dew Point 40 °F    
Average Humidity 98    
Maximum Humidity 100    
Minimum Humidity 81    
Precipitation  
Precipitation 0.02 in 0.16 in 2.13 in (1926)
Month to date precipitation 2.67  
Year to date precipitation 2.67  
Snow  
Snow 0.00 in 0.00 in - ()
Month to date snowfall 0.9  
Since 1 July snowfall 1.2  
Snow Depth -    
Sea Level Pressure  
Sea Level Pressure 29.92 in    
Wind  
Wind Speed 13 mph (NNW)    
Max Wind Speed 28 mph    
Max Gust Speed 41 mph    
Visibility 8 miles    
Events Rain , Snow    
T = Trace of Precipitation, MM = Missing Value Source: NWS Daily Summary

Daily Weather History Graph

Daily Weather History Graph

Search for Another Location

Airport or City:

Trip Planner

Search our weather history database for the weather conditions in past years. The results will help you decide how hot, cold, wet, or windy it might be!

Date:

Astronomy

Jan. 17, 2013 Rise Set
Actual Time 7:45 AM EST 5:54 PM EST
Civil Twilight 7:18 AM EST 6:21 PM EST
Nautical Twilight 6:47 AM EST 6:52 PM EST
Astronomical Twilight 6:17 AM EST 7:22 PM EST
Moon 11:10 AM EST (1/17) No Moon Set
Length of Visible Light 11h 02m
Length of Day
10h 08m
Waxing Crescent, 37% of the Moon is Illuminated
Jan 17
Waxing Crescent
Jan 18
First Quarter
Jan 26
Full
Feb 3
Last Quarter
Feb 10
New

Hourly Weather History & Observations

Time (EST) Temp. Windchill Dew Point Humidity Pressure Visibility Wind Dir Wind Speed Gust Speed Precip Events Conditions
12:15 AM 42.8 °F 37.5 °F 42.8 °F 100% 30.01 in 7.0 mi NNW 9.2 mph - N/A Rain Light Rain
12:35 AM 42.8 °F 37.0 °F 42.8 °F 100% 30.01 in 7.0 mi NNW 10.4 mph - N/A Rain Light Rain
12:55 AM 42.8 °F 36.6 °F 42.8 °F 100% 30.00 in 7.0 mi North 11.5 mph - N/A Rain Light Rain
1:15 AM 42.8 °F 36.6 °F 42.8 °F 100% 30.01 in 7.0 mi NNW 11.5 mph - N/A   Drizzle
1:35 AM 42.8 °F 36.2 °F 42.8 °F 100% 30.01 in 7.0 mi NNW 12.7 mph 18.4 mph N/A Rain Light Rain
1:55 AM 42.8 °F 36.2 °F 42.8 °F 100% 29.99 in 7.0 mi NNW 12.7 mph - N/A Rain Light Rain
2:15 AM 42.8 °F 35.8 °F 42.8 °F 100% 29.99 in 7.0 mi NNW 13.8 mph 18.4 mph N/A   Light Drizzle
2:35 AM 42.8 °F 36.2 °F 42.8 °F 100% 29.98 in 7.0 mi NNW 12.7 mph - N/A Rain Light Rain
2:55 AM 42.8 °F 36.6 °F 42.8 °F 100% 29.98 in 10.0 mi NNW 11.5 mph - N/A   Overcast
3:15 AM 42.8 °F 36.6 °F 42.8 °F 100% 29.98 in 7.0 mi NNW 11.5 mph - N/A Rain Light Rain
3:35 AM 42.8 °F 37.5 °F 42.8 °F 100% 29.96 in 7.0 mi North 9.2 mph - N/A Rain Light Rain
3:55 AM 42.8 °F 38.0 °F 42.8 °F 100% 29.95 in 10.0 mi North 8.1 mph - N/A Rain Rain
4:35 AM 42.8 °F 36.2 °F 42.8 °F 100% 29.94 in 10.0 mi North 12.7 mph - N/A   Overcast
4:55 AM 42.8 °F 36.6 °F 42.8 °F 100% 29.93 in 10.0 mi North 11.5 mph 20.7 mph N/A   Overcast
5:15 AM 42.8 °F 36.6 °F 42.8 °F 100% 29.93 in 10.0 mi North 11.5 mph 19.6 mph N/A   Overcast
5:35 AM 42.8 °F 35.4 °F 42.8 °F 100% 29.93 in 10.0 mi North 15.0 mph 20.7 mph N/A   Overcast
5:55 AM 42.8 °F 35.4 °F 42.8 °F 100% 29.92 in 5.0 mi North 15.0 mph 23.0 mph N/A   Drizzle
6:15 AM 42.8 °F 35.1 °F 42.8 °F 100% 29.92 in 5.0 mi NNW 16.1 mph 25.3 mph N/A   Drizzle
6:35 AM 41.0 °F 33.1 °F 41.0 °F 100% 29.92 in 5.0 mi North 15.0 mph 20.7 mph N/A   Light Drizzle
6:55 AM 41.0 °F 33.9 °F 41.0 °F 100% 29.91 in 5.0 mi North 12.7 mph 25.3 mph N/A Rain Light Rain
7:15 AM 41.0 °F 32.8 °F 41.0 °F 100% 29.91 in 7.0 mi North 16.1 mph 23.0 mph N/A Rain Light Rain
7:35 AM 41.0 °F 32.2 °F 41.0 °F 100% 29.91 in 7.0 mi NNW 18.4 mph 24.2 mph N/A   Unknown
7:55 AM 41.0 °F 32.8 °F 41.0 °F 100% 29.90 in 7.0 mi NNW 16.1 mph 24.2 mph N/A Rain Rain
8:15 AM 39.2 °F 30.8 °F 39.2 °F 100% 29.90 in 3.0 mi NNW 15.0 mph 24.2 mph N/A   Unknown
8:35 AM 39.2 °F 31.2 °F 39.2 °F 100% 29.91 in 4.0 mi NNW 13.8 mph 21.9 mph N/A   Unknown
8:55 AM 39.2 °F 30.8 °F 39.2 °F 100% 29.90 in 7.0 mi North 15.0 mph 26.5 mph N/A Rain Light Rain
9:15 AM 39.2 °F 30.5 °F 39.2 °F 100% 29.90 in 7.0 mi NNW 16.1 mph 23.0 mph N/A Rain Rain
9:35 AM 39.2 °F 30.2 °F 39.2 °F 100% 29.89 in 5.0 mi NNW 17.3 mph 21.9 mph N/A   Unknown
9:55 AM 39.2 °F 30.8 °F 39.2 °F 100% 29.89 in 7.0 mi North 15.0 mph 23.0 mph 0.01 in Rain Light Rain
10:15 AM 39.2 °F 30.5 °F 39.2 °F 100% 29.85 in 3.0 mi North 16.1 mph 23.0 mph N/A   Unknown
10:35 AM 39.2 °F 32.5 °F 39.2 °F 100% 29.89 in 10.0 mi North 10.4 mph 24.2 mph N/A Rain Light Rain
10:55 AM 41.0 °F 34.7 °F 41.0 °F 100% 29.83 in 10.0 mi North 10.4 mph 23.0 mph N/A Rain Light Rain
11:15 AM 41.0 °F 34.7 °F 41.0 °F 100% 29.83 in 10.0 mi North 10.4 mph 18.4 mph N/A   Overcast
11:35 AM 41.0 °F 34.3 °F 41.0 °F 100% 29.80 in 10.0 mi North 11.5 mph 18.4 mph N/A   Overcast
11:55 AM 42.8 °F 36.6 °F 42.8 °F 100% 29.75 in 10.0 mi North 11.5 mph 18.4 mph N/A   Overcast
12:15 PM 44.6 °F 39.2 °F 44.6 °F 100% 29.72 in 10.0 mi North 10.4 mph 17.3 mph N/A   Overcast
12:35 PM 44.6 °F 36.6 °F 42.8 °F 93% 29.73 in 10.0 mi NNW 19.6 mph 26.5 mph N/A   Overcast
12:55 PM 42.8 °F 34.0 °F 41.0 °F 93% 29.71 in 10.0 mi North 20.7 mph 32.2 mph N/A   Overcast
1:15 PM 41.0 °F 33.5 °F 41.0 °F 100% 29.69 in 10.0 mi North 13.8 mph 26.5 mph N/A   Overcast
1:35 PM 41.0 °F 34.3 °F 41.0 °F 100% 29.74 in 7.0 mi NW 11.5 mph 18.4 mph N/A Rain Rain
1:55 PM 41.0 °F 33.5 °F 41.0 °F 100% 29.75 in 2.5 mi WNW 13.8 mph 24.2 mph N/A Rain Light Rain
2:15 PM 39.2 °F 28.5 °F 39.2 °F 100% 29.76 in 4.0 mi NNW 24.2 mph 31.1 mph N/A Rain Rain
2:35 PM 39.2 °F 29.3 °F 39.2 °F 100% 29.77 in 5.0 mi North 20.7 mph 32.2 mph N/A Rain Light Rain
2:55 PM 39.2 °F 29.6 °F 39.2 °F 100% 29.76 in 7.0 mi North 19.6 mph 29.9 mph N/A Rain Light Rain
3:15 PM 41.0 °F 30.9 °F 39.2 °F 93% 29.75 in 10.0 mi North 24.2 mph 36.8 mph N/A   Overcast
3:35 PM 39.2 °F 27.8 °F 37.4 °F 93% 29.75 in 10.0 mi North 27.6 mph 41.4 mph 0.01 in   Overcast
3:55 PM 39.2 °F 29.0 °F 37.4 °F 93% 29.78 in 10.0 mi North 21.9 mph 36.8 mph 0.01 in   Overcast
4:15 PM 39.2 °F 29.0 °F 37.4 °F 93% 29.82 in 10.0 mi North 21.9 mph 34.5 mph N/A   Overcast
4:35 PM 37.4 °F 25.6 °F 35.6 °F 93% 29.86 in 4.0 mi North 26.5 mph 36.8 mph N/A Rain Light Rain
4:55 PM 35.6 °F 25.5 °F 35.6 °F 100% 29.91 in 7.0 mi North 17.3 mph 26.5 mph N/A Snow Light Snow
5:55 PM 33.8 °F 24.8 °F 33.8 °F 100% 30.02 in 5.0 mi NNW 12.7 mph 21.9 mph N/A Snow Light Snow
6:35 PM 35.6 °F 24.2 °F 35.6 °F 100% 30.09 in 10.0 mi North 21.9 mph 28.8 mph N/A   Overcast
8:55 PM 37.4 °F 28.5 °F 32.0 °F 81% 30.22 in 10.0 mi North 15.0 mph 21.9 mph N/A   Clear
9:15 PM 35.6 °F 28.0 °F 32.0 °F 87% 30.23 in 10.0 mi North 10.4 mph 17.3 mph N/A   Clear
9:55 PM 35.6 °F 30.7 °F 32.0 °F 87% 30.26 in 10.0 mi North 5.8 mph - N/A   Mostly Cloudy
10:15 PM 35.6 °F 29.2 °F 32.0 °F 87% 30.27 in 10.0 mi North 8.1 mph - N/A   Scattered Clouds
10:35 PM 35.6 °F 29.2 °F 32.0 °F 87% 30.28 in 10.0 mi North 8.1 mph - N/A   Clear
10:55 PM 33.8 °F 26.4 °F 32.0 °F 93% 30.29 in 10.0 mi North 9.2 mph - N/A   Clear